Regional Weather Roundup
Issued by NWS

Home | Current Version | Previous Version | Text Only | Print | Product List | Glossary On
Versions: 1 2 3 4 5 6 7 8 9 10 11 12 13 14 15 16 17 18 19 20 21 22 23 24 25 26 27 28 29 30 31 32 33 34 35 36 37 38 39 40 41 42 43 44 45 46 47 48 49 50
000
ASUS46 KPQR 250410
RWROR

OREGON REGIONAL WEATHER ROUNDUP
NATIONAL WEATHER SERVICE PORTLAND OR
800 PM PST WED DEC 24 2014

NOTE: "FAIR" INDICATES FEW OR NO CLOUDS BELOW 12,000 FEET WITH
NO SIGNIFICANT WEATHER AND/OR OBSTRUCTIONS TO VISIBILITY.

ORZ001>013-250500-
NORTHWEST OREGON


CITY           SKY/WX    TMP DP  RH WIND       PRES   REMARKS
ASTORIA        CLOUDY    46  40  79 NW14G26   30.06R
NEWPORT        PTCLDY    50  41  71 NW16      30.14R
PORTLAND       CLOUDY    45  39  79 SW9       30.05R
VANCOUVER WA   CLOUDY    44  38  79 CALM      30.05R
SCAPPOOSE      CLOUDY    44  38  79 NW3       30.04R
HILLSBORO      CLOUDY    42  39  89 SW5       30.05R
AURORA         LGT RAIN  43  40  89 SW3       30.08R
MCMINNVILLE    CLOUDY    43  39  86 SW8       30.08R
SALEM          CLOUDY    45  38  76 W8        30.07R
CORVALLIS      MOCLDY    43  39  87 CALM      30.11R
EUGENE         CLOUDY    42  39  89 S6        30.11R
$$

ORZ021-028-250500-
SOUTHWEST OREGON


CITY           SKY/WX    TMP DP  RH WIND       PRES   REMARKS
NORTH BEND     MOCLDY    48  43  81 N10       30.18R
BROOKINGS      LGT RAIN  44  42  93 N5        30.18R
ROSEBURG       CLOUDY    43  41  93 CALM      30.15R
SEXTON SUMMIT  LGT SNOW  30  30 100 VRB3      30.04R VSB 3/4
MEDFORD        LGT RAIN  40  35  83 W6        30.11R
$$

ORZ014>016-041-250500-
COLUMBIA GORGE


CITY           SKY/WX    TMP DP  RH WIND       PRES   REMARKS
TROUTDALE      LGT RAIN  45  39  79 SW8       30.04R
THE DALLES     CLEAR     46  33  60 VRB3G18   29.92R
$$

ORZ029>031-041-044-049-050-061>064-502-503-505>511-250500-
EASTERN OREGON


CITY           SKY/WX    TMP DP  RH WIND       PRES   REMARKS
REDMOND        CLEAR     34  25  69 NW18G25   29.89R WCI  23
BEND           CLEAR     25  23  93 CALM      29.90R
PRINEVILLE     CLEAR     25  23  93 CALM      29.89R
KLAMATH FALLS  CLEAR     44  22  41 NW13      29.95R
LAKEVIEW       CLEAR     27  18  69 NW12      29.87S WCI  16
HERMISTON      CLEAR     37  32  82 SW10      29.87R WCI  30
PENDLETON      MOCLDY    35  30  82 W21       29.83R WCI  24
JOHN DAY       MOCLDY    31  25  78 NW14      29.81R WCI  21
MEACHAM        CLOUDY    29  27  92 W8        29.76R WCI  21
LA GRANDE      CLOUDY    36  23  60 NW23G29   29.74F WCI  24
BAKER CITY     CLOUDY    31  24  75 NW21G31   29.71R WCI  18
BURNS          MOCLDY    30  20  66 W20G29    29.77R WCI  17
ROME             N/A     34  23  64 W21G31    29.69R WCI  22
ONTARIO        CLOUDY    38  28  67 NW28G38   29.68R WCI  26
$$


USA.gov is the U.S. government's official web portal to all federal, state and local government web resources and services.